Latest Weather Observations for Mount Hotham Airport

IDV60801

Issued at 4:35 pm EDT Saturday 25 October 2014 (issued every 30 minutes, with the page automatically refreshed every 10 minutes)

About weather observations | Map of weather stations | Latest weather observations for VIC | Other Formats
Station Details ID: 083055 Name: MOUNT HOTHAM AIRPORT Lat: -37.05 Lon: 147.33 Height: 1295.4 m
Data from the previous 72 hours. | See also: Recent months at Mount Hotham Airport
Date/Time
EDT
Temp
°C
App
Temp
°C
Dew
Point
Rel
Hum
%
Delta-T
°C
Wind Press
QNH
hPa
Press
MSL
hPa
Rain
since 9 am
mm
Dir
 
Spd
km/h
Gust
km/h
Spd
kts
Gust
kts
25/04:30pm 22.0 17.6 6.7 37 8.3 NW 19 30 10 16 1017.2 - 0.0
25/04:00pm 21.4 16.3 6.1 37 8.2 NW 22 35 12 19 1017.4 - 0.0
25/03:30pm 21.6 16.9 5.9 36 8.4 W 20 41 11 22 1017.7 - 0.0
25/03:00pm 22.1 16.0 4.6 32 9.2 W 26 39 14 21 1018.1 1018.7 0.0
25/02:30pm 22.6 17.0 5.5 33 9.1 W 24 37 13 20 1018.0 - 0.0
25/02:00pm 23.3 18.4 7.0 35 9.0 WNW 22 32 12 17 1018.5 - 0.0
25/01:30pm 23.1 17.6 6.0 33 9.3 WNW 24 35 13 19 1018.7 - 0.0
25/01:00pm 22.7 18.0 6.0 34 9.0 W 20 33 11 18 1018.8 - 0.0
25/12:30pm 22.9 18.1 5.8 33 9.2 W 20 37 11 20 1019.1 - 0.0
25/12:19pm 22.4 16.2 6.2 35 8.8 WNW 28 48 15 26 1019.1 - 0.0
25/12:00pm 22.6 18.5 6.4 35 8.8 W 17 30 9 16 1019.3 1019.9 0.0
25/11:30am 22.2 16.6 5.6 34 8.9 W 24 39 13 21 1019.7 - 0.0
25/11:00am 22.0 16.9 5.8 35 8.7 W 22 35 12 19 1019.8 - 0.0
25/10:30am 21.0 15.5 4.1 33 8.7 W 22 37 12 20 1019.8 - 0.0
25/10:24am 20.6 14.0 4.2 34 8.5 WNW 28 48 15 26 1019.8 - 0.0
25/10:00am 20.4 14.8 3.6 33 8.6 W 22 33 12 18 1019.8 - 0.0
25/09:30am 19.5 13.6 1.9 31 8.6 W 22 35 12 19 1019.7 - 0.0
25/09:00am 19.1 13.8 2.0 32 8.4 W 19 28 10 15 1019.6 1020.2 0.0
25/08:30am 18.0 12.2 2.3 35 7.7 W 22 33 12 18 1019.5 - 0.0
25/08:00am 17.1 13.0 4.1 42 6.5 W 15 22 8 12 1019.4 - 0.0
25/07:30am 15.6 11.9 4.6 48 5.5 WNW 13 19 7 10 1019.1 - 0.0
25/07:00am 12.4 9.0 3.9 56 4.1 WNW 11 17 6 9 1018.9 - 0.0
25/06:30am 9.5 5.4 2.4 61 3.3 WNW 13 17 7 9 1018.8 - 0.0
25/06:00am 10.9 6.8 2.0 54 4.1 W 13 15 7 8 1018.6 1019.2 0.0
25/05:30am 9.8 6.0 1.7 57 3.7 W 11 15 6 8 1018.4 - 0.0
25/05:00am 8.1 4.2 1.3 62 3.0 W 11 13 6 7 1018.4 - 0.0
25/04:30am 8.3 4.8 1.0 60 3.2 WNW 9 11 5 6 1018.2 - 0.0
25/04:00am 8.6 5.2 1.7 62 3.1 W 9 11 5 6 1018.1 - 0.0
25/03:30am 10.5 7.7 2.1 56 3.9 W 6 7 3 4 1018.2 - 0.0
25/03:00am 9.2 6.0 3.0 65 2.9 W 9 11 5 6 1018.4 1019.0 0.0
25/02:30am 10.0 6.6 4.2 67 2.8 W 11 13 6 7 1018.4 - 0.0
25/02:00am 11.8 8.2 5.0 63 3.4 WNW 13 19 7 10 1018.6 - 0.0
25/01:30am 12.0 8.5 5.4 64 3.3 WNW 13 15 7 8 1018.8 - 0.0
25/01:00am 13.6 9.4 5.7 59 4.0 WNW 17 22 9 12 1019.0 - 0.0
25/12:30am 12.5 8.3 5.9 64 3.3 WNW 17 19 9 10 1019.0 - 0.0
25/12:00am 13.5 9.4 6.1 61 3.8 WNW 17 20 9 11 1019.0 1019.7 0.0
 
Date/Time
EDT
Temp
°C
App
Temp
°C
Dew
Point
Rel
Hum
%
Delta-T
°C
Wind Press
QNH
hPa
Press
MSL
hPa
Rain
since 9 am
mm
Dir
 
Spd
km/h
Gust
km/h
Spd
kts
Gust
kts
24/11:30pm 14.1 10.9 6.7 61 3.8 WNW 13 19 7 10 1019.1 - 0.0
24/11:00pm 13.1 10.7 6.9 66 3.2 WNW 9 11 5 6 1019.1 - 0.0
24/10:30pm 14.3 10.5 7.4 63 3.6 WNW 17 24 9 13 1019.1 - 0.0
24/10:00pm 14.8 11.2 6.9 59 4.1 WNW 15 22 8 12 1019.3 - 0.0
24/09:30pm 13.2 9.5 6.5 64 3.4 WNW 15 19 8 10 1018.8 - 0.0
24/09:00pm 14.2 10.4 5.6 56 4.4 WNW 15 20 8 11 1018.5 1019.1 0.0
24/08:30pm 14.5 11.1 5.8 56 4.5 WNW 13 20 7 11 1018.2 - 0.0
24/08:00pm 14.9 11.6 6.5 57 4.4 WNW 13 20 7 11 1017.9 - 0.0
24/07:30pm 16.2 12.9 6.6 53 5.0 WNW 13 19 7 10 1017.7 - 0.0
24/07:00pm 17.3 13.3 6.5 49 5.7 NW 17 22 9 12 1017.2 - 0.0
24/06:30pm 19.4 16.1 6.2 42 7.0 WNW 13 17 7 9 1016.8 - 0.0
24/06:00pm 20.2 15.1 6.2 40 7.5 NW 22 32 12 17 1016.8 1017.3 0.0
24/05:30pm 19.9 15.4 7.0 43 7.0 NW 20 37 11 20 1016.8 - 0.0
24/05:00pm 19.7 15.0 6.1 41 7.2 NW 20 28 11 15 1016.5 - 0.0
24/04:30pm 20.0 14.1 6.0 40 7.4 WNW 26 39 14 21 1016.7 - 0.0
24/04:15pm 19.6 13.5 6.7 43 6.9 NW 28 46 15 25 1016.8 - 0.0
24/04:00pm 19.5 14.5 8.2 48 6.2 NW 24 33 13 18 1016.9 - 0.0
24/03:30pm 18.8 14.1 7.6 48 6.1 NW 22 33 12 18 1017.1 - 0.0
24/03:06pm 19.7 13.8 7.4 45 6.7 NW 28 46 15 25 1017.1 - 0.0
24/03:00pm 19.7 13.9 7.8 46 6.5 NW 28 43 15 23 1017.0 1017.6 0.0
24/02:30pm 19.7 12.9 7.1 44 6.8 NW 32 46 17 25 1016.9 - 0.0
24/02:00pm 19.6 12.8 6.7 43 6.9 NW 32 52 17 28 1016.9 - 0.0
24/01:32pm 20.3 13.0 7.3 43 7.1 WNW 35 57 19 31 1016.8 - 0.0
24/01:30pm 20.3 13.2 6.3 40 7.5 NW 33 50 18 27 1016.7 - 0.0
24/01:00pm 20.3 12.6 7.0 42 7.2 NW 37 57 20 31 1016.5 - 0.0
24/12:34pm 20.4 12.7 7.1 42 7.2 NW 37 56 20 30 1016.8 - 0.0
24/12:30pm 20.2 11.8 5.8 39 7.6 NW 39 52 21 28 1016.7 - 0.0
24/12:09pm 20.7 14.6 6.6 40 7.6 NW 28 46 15 25 1016.9 - 0.0
24/12:00pm 19.8 13.8 7.2 44 6.8 NNW 28 43 15 23 1016.9 1017.4 0.0
24/11:37am 20.6 14.2 6.9 41 7.4 NNW 30 48 16 26 1017.2 - 0.0
24/11:30am 20.1 14.0 6.4 41 7.3 NNW 28 41 15 22 1017.3 - 0.0
24/11:00am 19.7 15.7 8.4 48 6.3 NNW 19 39 10 21 1018.0 - 0.0
24/10:30am 18.2 14.7 7.3 49 5.9 NNW 15 32 8 17 1018.1 - 0.0
24/10:00am 17.9 12.6 7.0 49 5.8 N 24 37 13 20 1018.4 - 0.0
24/09:30am 17.8 11.4 7.0 49 5.8 NNW 30 44 16 24 1018.7 - 0.0
24/09:00am 17.4 13.0 7.5 52 5.3 N 20 30 11 16 1018.7 1019.3 0.4
24/08:30am 16.8 11.9 6.9 52 5.3 NNW 22 39 12 21 1018.6 - 0.4
24/08:00am 16.2 12.7 7.2 55 4.8 NNW 15 28 8 15 1018.8 - 0.4
24/07:30am 15.4 11.0 6.4 55 4.7 NNW 19 28 10 15 1019.0 - 0.4
24/07:00am 14.6 9.2 6.2 57 4.3 NNW 24 33 13 18 1018.8 - 0.4
24/06:30am 15.0 10.3 6.0 55 4.6 NNW 20 32 11 17 1018.8 - 0.4
24/06:00am 14.7 9.6 6.0 56 4.5 NNW 22 32 12 17 1018.5 1019.1 0.4
24/05:30am 14.1 10.0 6.2 59 4.1 NW 17 22 9 12 1018.4 - 0.4
24/05:00am 14.1 10.0 6.2 59 4.1 NW 17 24 9 13 1018.4 - 0.4
24/04:30am 15.0 10.0 6.6 57 4.4 NW 22 30 12 16 1018.4 - 0.4
24/04:00am 14.4 10.0 6.7 60 4.0 NNW 19 26 10 14 1018.6 - 0.4
24/03:30am 14.4 10.5 7.0 61 3.9 NNW 17 22 9 12 1018.9 - 0.4
24/03:00am 13.0 9.7 7.9 71 2.7 NW 15 19 8 10 1019.0 1019.7 0.4
24/02:30am 12.7 12.2 12.5 99 0.1 NW 7 11 4 6 1019.5 - 0.4
24/02:21am 12.0 11.3 12.0 100 0.0 NW 7 9 4 5 1019.6 - 0.4
24/02:00am 8.9 7.3 8.9 100 0.0 NNW 7 9 4 5 1019.8 - 0.4
24/01:30am 9.2 7.9 9.2 100 0.0 N 6 9 3 5 1020.3 - 0.4
24/01:00am 9.1 8.5 9.1 100 0.0 N 2 6 1 3 1020.7 - 0.4
24/12:30am 10.6 9.5 10.6 100 0.0 N 7 9 4 5 1021.1 - 0.4
24/12:00am 11.0 9.6 11.0 100 0.0 NNW 9 11 5 6 1021.2 1021.9 0.4
 
Date/Time
EDT
Temp
°C
App
Temp
°C
Dew
Point
Rel
Hum
%
Delta-T
°C
Wind Press
QNH
hPa
Press
MSL
hPa
Rain
since 9 am
mm
Dir
 
Spd
km/h
Gust
km/h
Spd
kts
Gust
kts
23/11:30pm 11.1 9.8 11.1 100 0.0 NNW 9 11 5 6 1021.2 - 0.4
23/11:00pm 11.1 10.3 11.1 100 0.0 NNW 6 7 3 4 1021.4 - 0.4
23/10:30pm 11.3 10.6 11.3 100 0.0 NW 6 7 3 4 1021.6 - 0.4
23/10:00pm 11.2 10.3 11.2 100 0.0 NW 7 7 4 4 1021.9 - 0.4
23/09:30pm 11.3 11.0 11.3 100 0.0 WNW 4 7 2 4 1021.9 - 0.2
23/09:00pm 11.1 11.1 11.1 100 0.0 SE 2 6 1 3 1022.0 1022.7 0.2
23/08:30pm 11.2 9.9 11.2 100 0.0 ESE 9 13 5 7 1022.0 - 0.2
23/08:00pm 11.4 9.8 11.4 100 0.0 ESE 11 15 6 8 1021.9 - 0.2
23/07:30pm 11.9 10.0 11.7 99 0.1 ESE 13 15 7 8 1021.6 - 0.2
23/07:00pm 12.6 12.0 12.4 99 0.1 ESE 7 9 4 5 1021.2 - 0.2
23/06:30pm 12.9 11.7 12.7 99 0.1 ESE 11 15 6 8 1021.0 - 0.2
23/06:29pm 13.0 11.8 12.8 99 0.1 ESE 11 15 6 8 1021.0 - 0.2
23/06:00pm 13.7 12.7 13.4 98 0.2 SE 11 15 6 8 1020.8 1021.5 0.2
23/05:30pm 14.9 14.5 14.1 95 0.5 SSE 9 13 5 7 1020.8 - 0.2
23/05:00pm 15.2 15.4 14.6 96 0.4 S 7 15 4 8 1021.0 - 0.2
23/04:30pm 15.9 15.7 14.6 92 0.8 SSE 9 11 5 6 1020.8 - 0.2
23/04:00pm 16.0 14.4 12.9 82 1.8 SE 13 17 7 9 1020.7 - 0.2
23/03:30pm 17.8 16.2 12.9 73 2.9 SE 13 17 7 9 1020.7 - 0.0
23/03:00pm 18.4 16.4 12.6 69 3.4 SE 15 20 8 11 1020.7 1021.4 0.0
23/02:30pm 18.4 16.1 11.7 65 3.9 ESE 15 19 8 10 1021.1 - 0.0
23/02:00pm 19.0 17.4 12.7 67 3.8 ESE 13 20 7 11 1021.4 - 0.0
23/01:30pm 18.7 16.6 11.3 62 4.3 ESE 13 19 7 10 1021.9 - 0.0
23/01:00pm 18.5 16.3 10.8 61 4.4 ESE 13 19 7 10 1021.9 - 0.0
23/12:30pm 20.0 17.2 10.1 53 5.7 ESE 15 20 8 11 1021.9 - 0.0
23/12:00pm 19.9 17.4 9.8 52 5.7 ESE 13 17 7 9 1022.2 1022.9 0.0
23/11:30am 21.8 20.9 9.3 45 7.1 ENE 4 11 2 6 1022.3 - 0.0
23/11:00am 21.2 19.6 8.8 45 7.0 E 7 15 4 8 1022.4 - 0.0
23/10:30am 19.8 17.6 9.4 51 5.9 ESE 11 15 6 8 1022.7 - 0.0
23/10:00am 19.3 17.7 10.3 56 5.2 SE 9 13 5 7 1022.7 - 0.0
23/09:30am 18.8 17.1 8.5 51 5.7 ESE 7 13 4 7 1022.8 - 0.0
23/09:00am 18.3 17.1 9.4 56 5.0 E 6 9 3 5 1022.7 1023.4 0.0
23/08:30am 17.7 16.0 7.4 51 5.5 ENE 6 7 3 4 1022.7 - 0.0
23/08:00am 15.8 14.6 9.7 67 3.4 NNE 6 11 3 6 1022.5 - 0.0
23/07:30am 11.3 9.8 7.0 75 2.2 N 4 7 2 4 1022.4 - 0.0
23/07:00am 11.5 9.5 7.2 75 2.2 NNW 7 7 4 4 1022.3 - 0.0
23/06:30am 10.1 8.2 6.8 80 1.7 WNW 6 7 3 4 1022.3 - 0.0
23/06:00am 9.2 6.9 5.0 75 2.0 NNW 6 6 3 3 1022.1 1022.8 0.0
23/05:30am 11.4 9.6 7.9 79 1.8 N 7 11 4 6 1022.0 - 0.0
23/05:00am 11.8 10.2 8.1 78 1.9 NNW 6 7 3 4 1022.0 - 0.0
23/04:30am 12.5 11.2 7.8 73 2.5 E 4 6 2 3 1022.1 - 0.0
23/04:00am 13.2 11.8 7.2 67 3.1 SE 4 6 2 3 1022.0 - 0.0
23/03:30am 14.6 13.0 6.4 58 4.2 N 4 6 2 3 1021.8 - 0.0
23/03:00am 13.8 12.2 7.8 67 3.2 WNW 6 11 3 6 1022.2 1022.9 0.0
23/02:30am 14.1 11.3 8.5 69 3.0 NNW 13 19 7 10 1022.3 - 0.0
23/02:00am 13.5 10.4 7.3 66 3.2 WNW 13 19 7 10 1022.4 - 0.0
23/01:30am 14.0 12.0 6.1 59 4.1 WNW 6 9 3 5 1022.3 - 0.0
23/01:00am 11.5 9.8 6.0 69 2.8 W 4 6 2 3 1022.4 - 0.0
23/12:30am 14.2 11.6 6.3 59 4.1 NNW 9 9 5 5 1022.2 - 0.0
23/12:00am 13.1 10.6 6.5 64 3.4 NNW 9 17 5 9 1022.4 1023.2 0.0
 
Date/Time
EDT
Temp
°C
App
Temp
°C
Dew
Point
Rel
Hum
%
Delta-T
°C
Wind Press
QNH
hPa
Press
MSL
hPa
Rain
since 9 am
mm
Dir
 
Spd
km/h
Gust
km/h
Spd
kts
Gust
kts
22/11:30pm 12.6 10.6 6.9 68 2.9 NNW 7 9 4 5 1022.9 - 0.0
22/11:00pm 14.0 12.1 6.6 61 3.8 NW 6 9 3 5 1023.3 - 0.0
22/10:30pm 12.9 11.0 6.9 67 3.1 NW 6 6 3 3 1023.3 - 0.0
22/10:00pm 12.7 10.8 6.7 67 3.1 NW 6 6 3 3 1023.3 - 0.0
22/09:30pm 12.6 10.7 6.6 67 3.1 NNW 6 7 3 4 1023.5 - 0.0
22/09:00pm 12.6 10.6 6.2 65 3.2 NW 6 7 3 4 1023.3 1024.1 0.0
22/08:30pm 12.8 11.1 5.9 63 3.5 E 4 4 2 2 1023.1 - 0.0
22/08:00pm 13.2 10.9 5.6 60 3.8 W 7 9 4 5 1022.7 - 0.0
22/07:30pm 15.7 13.3 5.3 50 5.3 W 7 9 4 5 1022.7 - 0.0
22/07:00pm 18.8 16.5 4.9 40 7.2 WSW 6 9 3 5 1022.5 - 0.0
22/06:30pm 20.2 17.6 4.3 35 8.2 WSW 7 13 4 7 1022.3 - 0.0
22/06:00pm 20.8 17.8 4.0 33 8.6 SW 9 13 5 7 1022.4 1023.2 0.0
22/05:30pm 21.1 18.0 3.8 32 8.9 SW 9 15 5 8 1022.4 - 0.0
22/05:00pm 21.3 18.2 3.5 31 9.1 SSW 9 17 5 9 1022.4 - 0.0

Other Formats:

Comma delimited format used in spreadsheet applications
http://www.bom.gov.au/fwo/IDV60801/IDV60801.94905.axf

JavaScript Object Notation format (JSON) in row-major order
http://www.bom.gov.au/fwo/IDV60801/IDV60801.94905.json